Weather History for Dickinson, ND

Change the Weather History Date:

Friday, October 14, 2011

  Actual Average Record
Temperature  
Mean Temperature 43 °F 45 °F  
Max Temperature 54 °F 58 °F 87 °F (1918)
Min Temperature 32 °F 32 °F 16 °F (1922)
Degree Days  
Heating Degree Days 22 20  
Month to date heating degree days 137 246  
Since 1 July heating degree days 373 600  
Cooling Degree Days 0 0  
Month to date cooling degree days 16 0  
Year to date cooling degree days 358 418  
Moisture  
Dew Point 28 °F    
Average Humidity 57    
Maximum Humidity 82    
Minimum Humidity 32    
Precipitation  
Precipitation 0.00 in 0.04 in 1.20 in (2013)
Month to date precipitation 0.27 0.62  
Year to date precipitation 17.26 14.38  
Sea Level Pressure  
Sea Level Pressure 30.01 in    
Wind  
Wind Speed 13 mph (WNW)    
Max Wind Speed 28 mph    
Max Gust Speed 35 mph    
Visibility 10 miles    
Events      
T = Trace of Precipitation, MM = Missing Value Source: NWS Daily Summary

Daily Weather History Graph

Daily Weather History Graph

Search for Another Location

Airport:

Trip Planner

Search our weather history database for the weather conditions in past years. The results will help you decide how hot, cold, wet, or windy it might be!

Date:

Astronomy

Oct. 14, 2011 Rise Set
Actual Time 7:07 AM MDT 6:06 PM MDT
Civil Twilight 6:36 AM MDT 6:36 PM MDT
Nautical Twilight 6:01 AM MDT 7:11 PM MDT
Astronomical Twilight 5:26 AM MDT 7:47 PM MDT
Moon 7:07 PM MDT (10/14) 9:51 AM MDT (10/14)
Length of Visible Light 12h 00m
Length of Day
10h 59m
Waning Gibbous, 94% of the Moon is Illuminated
Oct 14
Waning Gibbous
Oct 19
Last Quarter
Oct 26
New
Nov 2
First Quarter
Nov 10
Full

Hourly Weather History & Observations

Time (MDT) Temp. Windchill Dew Point Humidity Pressure Visibility Wind Dir Wind Speed Gust Speed Precip Events Conditions
12:56 AM 35.1 °F 28.6 °F 30.9 °F 85% 29.95 in 10.0 mi West 8.1 mph - N/A   Clear
1:56 AM 36.0 °F 28.5 °F 30.9 °F 82% 29.95 in 10.0 mi West 10.4 mph - N/A   Clear
2:56 AM 37.0 °F 28.9 °F 28.9 °F 73% 29.96 in 10.0 mi West 12.7 mph - N/A   Clear
3:56 AM 36.0 °F 26.7 °F 28.9 °F 76% 29.97 in 10.0 mi West 15.0 mph - N/A   Clear
5:56 AM 33.1 °F 23.9 °F 27.0 °F 78% 30.01 in 10.0 mi West 12.7 mph - N/A   Clear
6:56 AM 33.1 °F 23.9 °F 27.0 °F 78% 30.03 in 10.0 mi West 12.7 mph - N/A   Clear
7:56 AM 35.1 °F 27.4 °F 28.0 °F 76% 30.04 in 10.0 mi West 10.4 mph - N/A   Clear
8:56 AM 39.9 °F 31.8 °F 30.0 °F 68% 30.06 in 10.0 mi WNW 15.0 mph 23.0 mph N/A   Clear
9:56 AM 45.0 °F 37.6 °F 30.9 °F 58% 30.06 in 10.0 mi WNW 17.3 mph 23.0 mph N/A   Clear
10:56 AM 48.0 °F - 30.9 °F 52% 30.07 in 10.0 mi WNW 18.4 mph 24.2 mph N/A   Clear
11:56 AM 50.0 °F - 30.9 °F 48% 30.06 in 10.0 mi NW 20.7 mph 28.8 mph N/A   Clear
12:56 PM 52.0 °F - 30.9 °F 45% 30.04 in 10.0 mi WNW 20.7 mph 27.6 mph N/A   Partly Cloudy
1:56 PM 54.0 °F - 28.9 °F 38% 30.02 in 10.0 mi NW 17.3 mph 31.1 mph N/A   Partly Cloudy
2:56 PM 54.0 °F - 28.9 °F 38% 30.00 in 10.0 mi WNW 17.3 mph 28.8 mph N/A   Clear
3:56 PM 54.0 °F - 26.1 °F 34% 30.00 in 10.0 mi NW 21.9 mph 29.9 mph N/A   Clear
4:56 PM 53.1 °F - 25.0 °F 34% 30.01 in 10.0 mi WNW 20.7 mph 24.2 mph N/A   Clear
5:56 PM 46.9 °F - 25.0 °F 42% 30.03 in 10.0 mi WNW 9.2 mph - N/A   Clear
7:56 PM 36.0 °F 32.1 °F 24.1 °F 62% 30.04 in 10.0 mi West 4.6 mph - N/A   Clear
8:56 PM 37.9 °F 32.1 °F 25.0 °F 60% 30.02 in 10.0 mi West 8.1 mph - N/A   Clear
9:56 PM 39.0 °F 34.8 °F 25.0 °F 57% 30.00 in 10.0 mi West 5.8 mph - N/A   Clear
10:56 PM 39.9 °F 36.7 °F 27.0 °F 60% 29.99 in 10.0 mi West 4.6 mph - N/A   Mostly Cloudy
11:56 PM 39.9 °F 35.8 °F 27.0 °F 60% 29.99 in 10.0 mi WSW 5.8 mph - N/A   Overcast